TimeCDT,TemperatureF,Dew PointF,Humidity,Sea Level PressureIn,VisibilityMPH,Wind Direction,Wind SpeedMPH,Gust SpeedMPH,PrecipitationIn,Events,Conditions,WindDirDegrees,DateUTC
12:15 AM,64.4,55.4,73,30.04,10.0,South,5.8,-,N/A,,Clear,180,2013-09-29 05:15:00
12:35 AM,62.6,55.4,77,30.04,10.0,South,5.8,-,N/A,,Clear,180,2013-09-29 05:35:00
12:55 AM,64.4,55.4,73,30.03,10.0,South,4.6,-,N/A,,Clear,180,2013-09-29 05:55:00
1:15 AM,64.4,55.4,73,30.03,10.0,South,4.6,-,N/A,,Clear,180,2013-09-29 06:15:00
1:35 AM,62.6,55.4,77,30.04,10.0,South,4.6,-,N/A,,Clear,190,2013-09-29 06:35:00
1:55 AM,62.6,55.4,77,30.04,10.0,South,4.6,-,N/A,,Clear,190,2013-09-29 06:55:00
2:15 AM,64.4,55.4,73,30.04,10.0,South,3.5,-,N/A,,Mostly Cloudy,180,2013-09-29 07:15:00
2:35 AM,64.4,55.4,73,30.03,10.0,South,4.6,-,N/A,,Mostly Cloudy,180,2013-09-29 07:35:00
2:55 AM,64.4,55.4,73,30.02,10.0,South,4.6,-,N/A,,Mostly Cloudy,180,2013-09-29 07:55:00
3:15 AM,64.4,55.4,73,30.02,10.0,South,4.6,-,N/A,,Overcast,190,2013-09-29 08:15:00
3:35 AM,66.2,55.4,68,30.02,10.0,SSW,5.8,-,N/A,,Overcast,200,2013-09-29 08:35:00
3:55 AM,66.2,55.4,68,30.02,10.0,South,8.1,-,N/A,,Overcast,180,2013-09-29 08:55:00
4:15 AM,66.2,55.4,68,30.01,10.0,South,6.9,-,N/A,,Overcast,190,2013-09-29 09:15:00
4:35 AM,66.2,55.4,68,30.01,10.0,SSW,4.6,-,N/A,,Overcast,200,2013-09-29 09:35:00
4:55 AM,66.2,55.4,68,30.02,10.0,SSW,4.6,-,N/A,,Overcast,210,2013-09-29 09:55:00
5:15 AM,66.2,55.4,68,30.02,10.0,SW,5.8,-,N/A,,Overcast,230,2013-09-29 10:15:00
5:35 AM,66.2,57.2,73,30.03,10.0,SSW,3.5,-,N/A,,Overcast,210,2013-09-29 10:35:00
5:55 AM,66.2,57.2,73,30.03,10.0,SSW,3.5,-,N/A,,Overcast,210,2013-09-29 10:55:00
6:15 AM,64.4,57.2,77,30.04,10.0,South,3.5,-,N/A,,Overcast,170,2013-09-29 11:15:00
6:35 AM,64.4,57.2,77,30.04,10.0,South,3.5,-,N/A,,Overcast,180,2013-09-29 11:35:00
6:55 AM,64.4,57.2,77,30.04,10.0,West,5.8,-,N/A,,Overcast,280,2013-09-29 11:55:00
7:15 AM,64.4,57.2,77,30.05,8.0,West,4.6,-,N/A,,Overcast,270,2013-09-29 12:15:00
7:35 AM,62.6,59.0,88,30.06,7.0,West,3.5,-,0.04,,Overcast,280,2013-09-29 12:35:00
7:55 AM,62.6,60.8,94,30.06,5.0,Calm,Calm,-,0.12,,Overcast,0,2013-09-29 12:55:00
8:15 AM,62.6,60.8,94,30.06,4.0,Calm,Calm,-,0.02,,Overcast,0,2013-09-29 13:15:00
8:35 AM,62.6,60.8,94,30.06,5.0,South,3.5,-,0.06,,Overcast,190,2013-09-29 13:35:00
8:55 AM,62.6,60.8,94,30.06,5.0,South,3.5,-,0.06,,Overcast,180,2013-09-29 13:55:00
9:15 AM,62.6,60.8,94,30.06,5.0,South,5.8,-,0.05,,Overcast,170,2013-09-29 14:15:00
9:35 AM,62.6,60.8,94,30.07,7.0,South,4.6,-,0.12,,Overcast,180,2013-09-29 14:35:00
9:55 AM,62.6,60.8,94,30.06,8.0,South,10.4,-,0.14,,Overcast,190,2013-09-29 14:55:00
10:15 AM,62.6,60.8,94,30.06,4.0,South,8.1,-,0.02,,Overcast,190,2013-09-29 15:15:00
10:35 AM,62.6,60.8,94,30.06,5.0,South,8.1,-,0.02,,Overcast,190,2013-09-29 15:35:00
10:55 AM,62.6,60.8,94,30.06,8.0,South,8.1,-,0.05,,Overcast,180,2013-09-29 15:55:00
11:15 AM,62.6,60.8,94,30.06,7.0,South,5.8,-,0.02,,Overcast,190,2013-09-29 16:15:00
11:35 AM,62.6,60.8,94,30.06,10.0,South,8.1,-,0.03,,Overcast,190,2013-09-29 16:35:00
11:55 AM,62.6,60.8,94,30.05,10.0,South,5.8,-,0.03,,Overcast,190,2013-09-29 16:55:00
12:15 PM,62.6,60.8,94,30.05,9.0,South,6.9,-,N/A,,Overcast,190,2013-09-29 17:15:00
12:35 PM,62.6,60.8,94,30.05,5.0,South,8.1,-,0.01,,Overcast,190,2013-09-29 17:35:00
12:55 PM,62.6,60.8,94,30.04,10.0,South,8.1,-,0.01,,Overcast,190,2013-09-29 17:55:00
1:15 PM,62.6,60.8,94,30.03,10.0,South,5.8,-,0.01,,Overcast,190,2013-09-29 18:15:00
1:35 PM,62.6,60.8,94,30.03,10.0,SSW,10.4,-,0.01,,Overcast,200,2013-09-29 18:35:00
1:55 PM,62.6,60.8,94,30.02,10.0,SSW,6.9,-,0.01,,Overcast,200,2013-09-29 18:55:00
2:15 PM,62.6,60.8,94,30.01,10.0,South,6.9,-,N/A,,Overcast,190,2013-09-29 19:15:00
2:35 PM,64.4,60.8,88,30.01,10.0,South,5.8,-,N/A,,Overcast,180,2013-09-29 19:35:00
2:55 PM,64.4,60.8,88,30.00,10.0,South,8.1,-,N/A,,Overcast,180,2013-09-29 19:55:00
3:15 PM,64.4,60.8,88,30.00,10.0,SSW,6.9,-,N/A,,Overcast,200,2013-09-29 20:15:00
3:35 PM,64.4,60.8,88,30.00,10.0,SSW,6.9,-,N/A,,Overcast,210,2013-09-29 20:35:00
3:55 PM,64.4,60.8,88,30.00,10.0,SSW,6.9,-,N/A,,Overcast,200,2013-09-29 20:55:00
4:15 PM,64.4,60.8,88,30.00,10.0,SSW,5.8,-,N/A,,Overcast,200,2013-09-29 21:15:00
4:35 PM,64.4,60.8,88,30.01,10.0,South,6.9,-,N/A,,Overcast,190,2013-09-29 21:35:00
4:55 PM,64.4,60.8,88,30.00,10.0,SSW,6.9,-,N/A,,Overcast,200,2013-09-29 21:55:00
5:15 PM,64.4,60.8,88,30.01,10.0,SSW,5.8,-,N/A,,Overcast,200,2013-09-29 22:15:00
5:35 PM,64.4,60.8,88,30.01,10.0,South,4.6,-,N/A,,Overcast,180,2013-09-29 22:35:00
5:55 PM,64.4,60.8,88,30.01,10.0,South,4.6,-,N/A,,Overcast,180,2013-09-29 22:55:00
6:15 PM,64.4,60.8,88,30.01,10.0,SSW,5.8,-,N/A,,Overcast,200,2013-09-29 23:15:00
6:35 PM,62.6,60.8,94,30.00,10.0,South,6.9,-,N/A,,Overcast,180,2013-09-29 23:35:00
6:55 PM,62.6,60.8,94,30.00,10.0,South,5.8,-,N/A,,Overcast,190,2013-09-29 23:55:00
7:15 PM,62.6,60.8,94,30.00,10.0,SSW,3.5,-,N/A,,Overcast,200,2013-09-30 00:15:00
7:35 PM,62.6,60.8,94,30.00,10.0,SSW,3.5,-,N/A,,Overcast,210,2013-09-30 00:35:00
7:55 PM,62.6,60.8,94,30.01,10.0,SSW,3.5,-,N/A,,Overcast,200,2013-09-30 00:55:00
8:15 PM,62.6,60.8,94,30.01,10.0,South,3.5,-,N/A,,Overcast,180,2013-09-30 01:15:00
8:35 PM,62.6,60.8,94,30.01,10.0,SSW,3.5,-,N/A,,Overcast,200,2013-09-30 01:35:00
8:55 PM,62.6,60.8,94,30.01,10.0,South,5.8,-,N/A,,Overcast,190,2013-09-30 01:55:00
9:15 PM,62.6,60.8,94,30.01,10.0,South,4.6,-,N/A,,Overcast,190,2013-09-30 02:15:00
9:35 PM,62.6,60.8,94,30.01,10.0,South,5.8,-,N/A,,Overcast,190,2013-09-30 02:35:00
9:55 PM,62.6,60.8,94,30.01,10.0,South,4.6,-,N/A,,Overcast,190,2013-09-30 02:55:00
10:15 PM,62.6,60.8,94,30.01,9.0,SSW,3.5,-,N/A,,Overcast,200,2013-09-30 03:15:00
10:35 PM,62.6,60.8,94,30.00,10.0,South,3.5,-,N/A,,Overcast,190,2013-09-30 03:35:00
10:55 PM,62.6,60.8,94,30.00,10.0,South,4.6,-,N/A,,Overcast,170,2013-09-30 03:55:00
11:15 PM,62.6,60.8,94,30.00,10.0,South,3.5,-,N/A,,Overcast,180,2013-09-30 04:15:00
11:35 PM,62.6,60.8,94,30.00,10.0,South,4.6,-,N/A,,Overcast,190,2013-09-30 04:35:00
11:55 PM,62.6,60.8,94,30.00,9.0,Calm,Calm,-,N/A,,Overcast,0,2013-09-30 04:55:00